Regional Weather Roundup
Issued by NWS

Home | Current Version | Previous Version | Text Only | Print | Product List | Glossary On
Versions: 1 2 3 4 5 6 7 8 9 10 11 12 13 14 15 16 17 18 19 20 21 22 23 24 25 26 27 28 29 30 31 32 33 34 35 36 37 38 39 40 41 42 43 44 45 46 47 48 49 50
000
ASCA42 TJSJ 280410
RWRPR
PUERTO RICO/U.S. VIRGIN ISLANDS HOURLY WEATHER ROUNDUP
NATIONAL WEATHER SERVICE SAN JUAN PR
1200 AM AST SAT MAR 28 2015

PRZ001-004-280500-
PUERTO RICO

CITY           SKY/WX    TMP DP  RH WIND       PRES   REMARKS
SAN JUAN LMM   PTCLDY    77  70  78 SE5       30.09F
PONCE          PTCLDY    75  68  78 CALM      30.06S
AGUADILLA      CLEAR     72  64  78 SE6       30.10F
CEIBA          PTCLDY    79  70  73 E9        30.11F
$$

PRZ006-007-280500-
U.S. VIRGIN ISLANDS

CITY           SKY/WX    TMP DP  RH WIND       PRES   REMARKS
CHRISTIANSTED  PTCLDY    77  70  78 E15       30.09
$$

HOURLY WEATHER ROUNDUP FOR THE NEWS MEDIA

CITY           SKY/WX    TMP DP  RH WIND       PRES   REMARKS
ORLANDO        PTCLDY    62  53  72 NW15G22   29.97R
NEW YORK       MOCLDY    44  27  51 N9        29.79S
NEWARK         CLOUDY    42  24  49 NW12G21   29.80S
CHICAGO        PTCLDY    23  14  68 N5        30.21R WCI  17
HARTFORD       CLOUDY    38  37  97 CALM      29.74R FOG
BOSTON         CLOUDY    37  36  96 CALM      29.76R
DALLAS         PTCLDY    55  39  54 E6        30.17R
PHILADELPHIA   CLOUDY    43  23  45 N9        29.81S
LOS ANGELES    CLEAR     65  56  72 S6        30.03R
WASHINGTON DC  PTCLDY    39  24  55 N13       29.84S WCI  31


USA.gov is the U.S. government's official web portal to all federal, state and local government web resources and services.